Date,TemperatureHighF,TemperatureAvgF,TemperatureLowF,DewpointHighF,DewpointAvgF,DewpointLowF,HumidityHigh,HumidityAvg,HumidityLow,PressureMaxIn,PressureMinIn,WindSpeedMaxMPH,WindSpeedAvgMPH,GustSpeedMaxMPH,PrecipitationSumIn
2013-3-1,45.5,39.1,27.8,31.9,28.9,23.6,88,67,53,29.94,29.87,8,1,12,0.00
2013-3-2,45.3,38.2,33.5,34.5,28.4,21.1,85,68,44,29.96,29.83,8,2,17,0.00
2013-3-3,44.7,34.3,27.4,22.7,18.5,15.7,67,53,37,30.03,29.90,10,3,20,0.00
2013-3-4,55.7,37.2,19.1,26.6,17.9,13.4,84,50,20,30.16,30.02,9,1,14,0.00
2013-3-5,46.7,41.1,34.7,41.8,35.3,26.0,91,80,57,30.08,29.61,7,1,13,0.41
2013-3-6,47.0,39.4,31.6,39.4,27.0,21.9,91,62,47,30.13,29.62,16,7,28,0.02
2013-3-7,53.7,38.9,26.6,31.9,26.7,22.0,84,63,39,30.30,30.12,8,2,15,0.00
2013-3-8,57.2,40.3,24.8,27.9,24.4,19.5,82,57,27,30.35,30.23,9,2,17,0.00
2013-3-9,64.2,43.9,25.1,35.7,28.9,20.6,86,59,29,30.37,30.24,5,1,10,0.00
2013-3-10,66.6,49.9,34.3,39.7,34.9,29.5,88,60,34,30.31,30.17,7,1,14,0.00
2013-3-11,67.2,53.5,39.0,53.4,42.0,31.9,86,66,52,30.20,29.85,13,2,23,0.04
2013-3-12,66.1,57.1,39.4,55.3,46.4,31.8,91,71,36,29.97,29.72,9,3,18,0.32
2013-3-13,52.4,42.8,34.4,32.0,25.9,18.4,82,53,34,30.17,29.97,20,4,31,0.00
2013-3-14,53.9,40.1,26.5,22.1,18.1,13.8,65,43,22,30.30,30.16,9,3,20,0.00
2013-3-15,65.9,46.3,27.8,40.0,29.5,19.6,84,54,36,30.21,29.89,9,2,20,0.00
2013-3-16,78.2,63.2,42.2,50.4,45.4,35.7,83,55,35,29.89,29.66,15,4,25,0.00
2013-3-17,61.7,51.5,41.1,52.5,44.8,37.3,88,78,65,30.13,29.82,14,5,23,0.00
2013-3-18,41.1,38.8,37.5,37.6,36.3,35.1,91,90,87,30.16,29.87,9,3,17,0.42
2013-3-19,63.3,47.6,34.5,44.0,28.7,12.9,93,58,20,30.06,29.85,16,4,27,0.00
2013-3-20,57.1,47.2,37.5,26.3,17.7,12.4,52,31,21,30.12,29.79,12,2,25,0.00
2013-3-21,43.8,36.5,28.0,27.3,14.8,10.8,57,41,30,30.01,29.80,14,4,23,0.00
2013-3-22,52.4,36.4,19.6,25.2,18.1,11.6,78,50,28,30.11,29.98,9,1,15,0.00
2013-3-23,57.0,45.5,35.2,36.8,30.6,24.2,78,57,40,30.06,29.90,7,1,14,0.00
2013-3-24,46.0,40.9,36.8,40.7,37.2,34.1,92,87,70,29.93,29.55,10,3,18,0.52
2013-3-25,46.1,39.0,35.2,35.4,29.4,23.8,91,71,44,29.88,29.56,17,5,27,0.02
2013-3-26,46.7,38.5,27.5,28.1,25.3,22.4,83,60,42,30.19,29.87,10,3,21,0.00
2013-3-27,49.9,38.9,28.3,28.6,24.0,21.1,84,57,36,30.28,30.18,10,2,20,0.00
2013-3-28,54.9,38.9,22.9,28.2,22.6,18.5,87,56,27,30.32,30.21,10,2,17,0.00
2013-3-29,61.1,44.5,24.6,35.6,27.3,20.5,93,55,25,30.37,30.18,10,2,20,0.00
2013-3-30,65.1,51.2,34.8,42.1,35.6,30.7,88,58,35,30.24,30.05,8,1,12,0.00
2013-3-31,67.6,55.2,49.7,56.4,49.8,42.3,92,82,63,30.05,29.78,9,2,17,0.52